Lid_Strength_Index
-1 -1 -1 0 1 1 1 0 -0 -0 -0 -0 -0 -0 -0 -0 -0 -0 -0 -0 -0 -0 -0 -1 -1 -1 -0 0 0 -0 -1 -1
-0 -1 -0 -1 -1 1 1 0 0 0 0 0 0 0 -0 -0 -0 -0 -0 -0 -0 -0 -0 -1 -1 -0 -0 -0 0 -0 -1 -1
0 -0 0 -0 -1 -1 -0 -0 0 0 -0 0 1 -1 -1 -1 -0 0 0 0 0 0 -0 -0 -0 -0 -0 -0 -0 -1 -1 -1
1 1 1 -0 1 -0 -1 -1 -1 -1 -1 -1 -1 -1 -1 -1 -0 0 0 0 0 0 0 0 0 -1 -1 -1 -1 -1 -1 -1
0 1 0 1 1 1 0 -0 -0 -1 -1 -1 -1 -1 -1 -1 -1 -1 -1 -0 -1 -1 -1 -1 -1 -1 -1 -1 -1 -1 -1 -1
0 0 1 0 0 -0 1 1 0 0 0 0 0 -0 -0 -0 -0 -1 -1 -1 -1 -1 -1 -1 -1 -1 -1 -1 -1 -1 -1 -1
1 0 0 0 1 0 0 1 0 0 0 0 -0 -0 1 -0 -0 -0 -1 -1 -1 -1 -1 -1 -1 -1 -1 -1 -1 -1 -1 -1
0 1 -0 -0 0 0 0 0 -0 1 1 1 -0 1 1 0 2 1 1 0 0 0 0 -0 -0 -1 -0 -1 -1 -1 -1 -1
3 0 0 0 0 0 0 -0 -0 0 1 0 -0 1 -0 -0 1 1 1 1 0 1 1 1 -0 -0 -0 -0 -1 -0 -0 -0
3 3 0 0 0 0 0 -0 -0 0 1 1 -0 0 -0 1 1 1 -0 0 1 1 1 1 0 1 1 0 -0 -0 -0 -0
2 3 1 0 0 0 0 -0 0 -0 -0 0 -0 0 1 1 1 1 -1 0 0 1 1 1 1 1 1 0 0 -0 -0 0
1 1 2 0 0 0 0 0 -0 -0 -0 -0 -0 -0 1 1 1 0 -0 0 1 0 1 0 1 1 1 1 0 0 -0 0
1 1 1 0 1 2 2 2 1 1 0 -0 -0 -0 1 1 1 1 0 1 1 1 1 1 2 1 2 2 2 1 1 0
3 2 1 1 1 1 1 1 1 1 0 0 -0 -0 1 2 1 1 1 1 1 1 1 2 2 1 3 3 5 3 2 1
4 4 2 1 1 1 1 1 1 2 1 1 0 -0 1 1 1 1 1 1 1 1 1 2 3 2 1 3 6 7 4 2
6 5 4 1 0 1 2 3 3 2 2 1 1 1 1 1 1 1 1 1 1 1 0 1 1 3 2 1 1 2 5 6
7 6 5 3 1 1 2 2 2 1 1 2 1 1 1 2 0 0 1 1 0 0 1 1 1 2 2 3 3 2 2 4
8 8 7 5 1 1 2 2 2 2 2 2 2 1 2 1 0 0 1 2 1 0 0 1 1 1 1 2 3 3 3 3
9 8 8 7 5 2 2 2 2 2 2 2 2 2 1 1 1 1 2 1 1 0 1 1 1 1 1 2 1 2 1 2
10 9 9 7 7 2 2 2 2 2 1 1 1 1 1 1 1 1 1 1 1 0 1 1 1 1 1 1 1 2 2 1